Date,TemperatureHighF,TemperatureAvgF,TemperatureLowF,DewpointHighF,DewpointAvgF,DewpointLowF,HumidityHigh,HumidityAvg,HumidityLow,PressureMaxIn,PressureMinIn,WindSpeedMaxMPH,WindSpeedAvgMPH,GustSpeedMaxMPH,PrecipitationSumIn
2013-1-1,33.1,22.3,15.3,27.3,15.7,7.9,84,75,69,30.25,30.07,6,1,8,0.00
2013-1-2,25.3,23.5,21.9,13.6,12.2,11.2,64,62,58,30.22,30.19,3,0,3,0.00
2013-1-3,38.7,31.6,22.5,24.5,18.3,10.7,76,58,44,30.40,30.22,8,1,8,0.00
2013-1-4,41.4,33.7,23.2,25.2,15.5,11.9,83,48,34,30.43,30.31,10,1,10,0.00
2013-1-5,44.1,41.1,36.9,25.0,21.6,19.2,61,46,39,30.25,30.13,8,1,10,0.00
2013-1-6,36.9,30.1,21.4,24.6,14.6,10.4,68,53,41,30.37,30.13,11,1,11,0.00
2013-1-7,48.2,39.0,24.4,23.0,17.6,13.5,74,43,32,30.37,30.16,10,0,10,0.00
2013-1-8,55.9,50.1,46.0,39.2,24.8,16.0,77,39,25,30.19,30.07,10,1,11,0.00
2013-1-9,55.9,49.4,44.2,50.3,34.6,26.1,90,58,48,30.43,30.37,6,1,8,0.00
2013-1-10,55.4,49.7,45.1,52.5,44.7,37.7,90,83,75,30.16,29.84,6,0,6,0.00
2013-1-11,62.6,56.7,49.6,49.1,41.8,37.8,92,59,41,29.90,29.81,12,1,13,0.00
2013-1-12,53.8,38.1,30.9,29.4,26.1,22.9,80,64,38,29.96,29.87,10,1,11,0.00
2013-1-13,31.1,21.4,14.4,25.7,14.8,7.0,82,75,71,30.34,29.93,0,0,0,0.00
2013-1-14,26.1,20.7,14.5,16.6,9.4,2.8,72,61,56,30.46,30.37,0,0,0,0.00
2013-1-15,27.0,24.6,20.7,14.8,11.9,8.9,68,58,53,30.34,30.13,0,0,0,0.00
2013-1-16,42.1,34.0,24.4,17.0,14.2,11.5,68,45,33,30.13,30.04,8,0,9,0.00
2013-1-17,42.4,34.1,25.5,27.0,14.8,8.9,72,46,32,30.49,30.13,10,1,10,0.00
2013-1-18,39.9,28.6,22.5,18.4,15.6,12.8,68,59,41,30.46,30.43,8,1,8,0.00
2013-1-19,65.8,57.3,46.0,29.1,26.6,22.9,47,31,24,30.16,29.98,13,3,13,0.00
2013-1-20,42.8,34.2,23.9,17.1,9.4,2.5,43,35,30,30.31,30.22,8,2,8,0.00
2013-1-21,29.7,24.8,18.9,6.6,0.2,-5.0,39,34,33,30.34,30.31,12,4,12,0.00
2013-1-22,27.0,22.2,16.0,1.7,-1.9,-6.2,39,34,33,30.37,30.28,6,1,6,0.00
2013-1-23,51.3,42.2,31.1,23.3,17.5,10.5,43,37,31,30.34,30.13,9,2,10,0.00
2013-1-24,30.7,28.0,23.5,10.4,3.9,2.3,43,35,32,30.49,30.19,10,4,13,0.00
2013-1-25,46.4,38.1,29.1,23.2,16.1,4.9,69,41,33,30.25,30.13,9,2,10,0.00
2013-1-26,51.3,42.7,30.4,23.5,16.4,8.3,50,35,29,30.34,30.25,6,1,8,0.00
2013-1-27,56.3,48.4,39.0,51.5,43.9,32.8,90,84,78,30.13,29.96,10,4,15,0.00
2013-1-28,73.9,68.1,64.2,56.5,52.2,47.2,75,58,42,29.98,29.90,13,3,15,0.00
2013-1-29,66.0,56.5,52.0,55.9,49.5,45.9,87,78,63,29.78,29.51,12,1,17,0.00
2013-1-30,52.2,28.8,26.1,29.6,16.3,9.5,78,59,49,29.96,29.51,15,5,18,0.00
2013-1-31,37.6,24.1,11.1,21.6,7.4,-6.1,73,49,40,30.40,29.96,20,4,20,0.00
2013-2-1,29.3,27.2,17.8,5.7,3.9,-0.9,43,36,34,30.46,30.22,9,1,10,0.00
2013-2-2,44.2,37.7,28.2,28.0,18.1,5.5,71,45,37,30.22,30.04,10,2,13,0.00
2013-2-3,43.7,38.0,34.0,16.2,12.7,8.7,45,35,29,30.22,29.98,15,3,17,0.00
2013-2-4,61.7,48.7,28.6,32.0,24.3,14.5,56,39,27,29.98,29.81,10,3,10,0.00
2013-2-5,60.6,52.2,39.4,27.5,22.4,16.9,41,31,26,30.10,29.96,14,3,14,0.00
2013-2-6,61.0,51.7,43.3,29.6,22.4,17.5,49,32,25,30.19,30.04,9,2,10,0.00
2013-2-7,61.9,50.2,41.0,45.0,38.9,21.5,84,68,36,30.07,29.87,10,2,11,0.00
2013-2-8,41.0,33.7,32.0,35.8,25.2,22.8,82,71,68,30.34,30.07,9,2,10,0.00
2013-2-9,36.9,35.4,33.8,25.2,24.2,22.9,68,63,57,30.28,30.25,10,4,11,0.00
2013-2-10,61.9,54.8,48.0,50.9,32.2,20.6,84,46,27,29.84,29.60,11,4,15,0.00
2013-2-11,51.1,43.0,32.9,23.0,18.4,13.3,53,38,29,30.16,30.07,10,2,14,0.00
2013-2-12,43.9,38.2,24.8,28.3,22.5,15.2,79,54,42,30.13,29.96,5,0,5,0.00
2013-2-13,42.8,35.5,32.7,34.3,25.2,20.6,89,67,47,29.96,29.87,5,0,5,0.00
2013-2-14,55.9,46.9,35.4,28.3,24.1,20.2,75,42,29,30.07,29.87,10,2,10,0.00
2013-2-15,39.7,33.9,26.2,15.0,8.2,3.4,44,34,29,30.28,30.22,11,3,13,0.00
2013-2-16,26.1,19.4,18.3,5.6,4.7,4.5,54,52,41,30.25,30.22,0,0,0,0.00
2013-2-17,56.3,50.0,45.0,26.6,22.2,18.4,48,34,27,30.07,29.90,9,3,13,0.00
2013-2-18,53.6,46.2,32.0,46.9,35.4,17.1,86,67,48,29.98,29.60,19,5,19,0.00
2013-2-19,38.8,31.8,23.4,17.4,6.5,-0.5,56,34,29,30.31,29.98,16,3,16,0.00
2013-2-20,30.4,26.9,22.5,8.4,5.9,-0.2,42,40,35,30.37,30.22,10,2,10,0.00
2013-2-21,33.6,29.6,25.0,30.2,22.9,5.8,87,76,42,30.25,29.78,15,3,15,0.00
2013-2-22,33.6,28.2,21.7,30.2,15.2,10.9,87,58,44,30.07,29.81,10,2,11,0.00
2013-2-23,39.4,32.4,21.2,21.4,14.1,10.2,74,48,35,30.07,29.98,8,1,8,0.00
2013-2-24,50.9,41.6,24.6,20.6,16.1,11.4,61,36,29,30.04,29.98,8,1,10,0.00
2013-2-25,48.0,39.7,30.6,28.7,22.0,11.9,78,51,34,30.01,29.51,15,5,17,0.00
2013-2-26,36.0,34.6,33.4,32.0,31.0,28.5,88,87,78,29.72,29.39,11,2,15,0.00
2013-2-27,33.8,32.4,30.4,30.3,24.7,21.6,88,73,69,29.96,29.72,14,3,14,0.00
2013-2-28,33.1,31.2,29.7,23.8,22.1,20.0,78,69,61,30.13,30.07,9,2,9,0.00
2013-3-1,33.1,29.6,25.7,24.9,22.1,18.1,78,73,64,30.22,30.10,9,3,10,0.00
2013-3-2,33.1,27.2,20.7,18.1,10.3,6.3,72,49,41,30.28,30.19,10,2,10,0.00
2013-3-3,43.5,38.5,27.1,17.3,14.5,12.5,66,38,31,30.16,29.98,8,1,8,0.00
2013-3-4,57.2,47.7,36.3,33.5,29.1,16.5,74,50,36,29.98,29.72,9,2,11,0.00
2013-3-5,41.5,33.7,31.1,34.5,18.3,13.1,84,54,42,30.19,29.81,20,5,20,0.00
2013-3-6,39.2,31.7,23.4,17.2,14.3,10.4,60,49,40,30.37,30.19,10,1,10,0.00
2013-3-7,56.1,44.7,22.3,24.6,18.8,10.5,60,36,27,30.34,30.22,9,1,9,0.00
2013-3-8,56.8,49.4,35.1,27.0,21.8,17.8,52,34,27,30.37,30.16,9,2,10,0.00
2013-3-9,72.7,64.1,44.6,43.4,30.5,21.2,57,29,22,30.16,29.78,14,4,15,0.00
2013-3-10,60.1,50.3,39.7,51.4,44.1,33.3,89,80,55,29.81,29.63,10,2,12,0.00
2013-3-11,39.7,32.1,27.3,33.6,21.3,16.4,80,64,56,30.01,29.81,11,1,13,0.00
2013-3-12,51.4,42.9,24.1,20.6,17.5,13.7,83,37,28,30.25,30.07,17,4,17,0.00
2013-3-13,43.7,36.9,28.9,13.8,11.6,8.0,45,35,29,30.43,30.37,12,3,13,0.00
2013-3-14,68.9,57.7,43.5,31.7,27.6,16.5,52,32,24,30.25,30.07,10,2,13,0.00
2013-3-15,82.4,71.7,45.5,39.1,34.3,28.8,56,26,20,30.07,29.75,11,3,11,0.00
2013-3-16,63.7,44.9,38.5,34.1,30.1,28.1,69,57,32,30.01,29.75,10,4,10,0.00
2013-3-17,38.5,35.2,33.3,31.8,30.5,28.1,84,83,69,30.04,29.84,15,4,15,0.00
2013-3-18,50.7,44.5,38.3,38.8,27.8,18.2,88,54,36,30.04,29.84,10,3,12,0.00
2013-3-19,44.1,36.7,30.0,24.7,17.9,11.1,73,47,30,30.22,30.04,8,1,8,0.00
2013-3-20,38.7,33.0,23.5,16.0,7.9,1.1,49,35,30,30.28,30.13,14,4,17,0.00
2013-3-21,40.5,34.2,22.8,23.2,15.1,3.5,69,47,29,30.13,29.96,6,1,8,0.00
2013-3-22,36.3,34.8,31.6,30.8,28.2,22.0,80,77,67,30.01,29.96,8,1,8,0.00
2013-3-23,51.8,44.7,36.1,31.3,28.3,25.6,80,54,38,30.01,29.81,11,3,14,0.00
2013-3-24,40.6,31.7,29.3,31.3,28.0,26.2,89,86,69,29.93,29.60,4,0,5,0.00
2013-3-25,33.6,30.6,27.7,27.3,23.5,20.0,78,75,70,30.22,30.01,13,2,13,0.00
2013-3-26,40.5,33.5,25.2,18.0,15.0,11.2,71,47,38,30.34,30.25,8,1,9,0.00
2013-3-27,52.0,45.4,25.5,25.3,21.8,14.5,66,40,29,30.37,30.25,8,1,8,0.00
2013-3-28,62.1,55.9,41.7,30.7,27.2,22.5,59,33,28,30.31,30.19,8,2,10,0.00
2013-3-29,64.2,55.4,46.9,52.8,40.2,25.2,84,59,35,30.22,30.16,8,1,8,0.00
2013-3-30,55.6,50.8,45.9,44.6,40.0,34.5,84,67,46,30.19,29.93,10,1,10,0.00
2013-3-31,67.8,61.1,48.9,51.5,30.0,25.7,93,32,23,29.96,29.90,10,2,11,0.00
2013-4-1,51.8,46.0,36.3,32.6,17.2,9.3,55,32,27,30.25,29.96,11,3,11,0.00
2013-4-2,49.6,41.8,33.6,18.2,14.3,9.2,45,33,27,30.34,30.25,8,2,12,0.00
2013-4-3,54.3,45.1,31.5,20.9,16.1,10.5,44,31,26,30.34,30.22,11,2,12,0.00
2013-4-4,60.1,53.6,45.1,23.6,20.2,15.6,32,27,24,30.13,30.04,9,2,10,0.00
2013-4-5,70.7,60.7,41.7,33.3,28.7,17.2,44,30,23,30.19,30.01,8,2,8,0.00
2013-4-6,75.4,68.8,62.6,36.3,33.9,31.1,36,28,22,29.96,29.78,14,4,15,0.00
2013-4-7,78.8,71.2,60.3,54.6,42.1,35.9,76,38,22,29.93,29.81,13,2,13,0.00
2013-4-8,75.9,72.1,60.6,53.5,48.3,46.2,77,43,36,29.90,29.78,12,2,12,0.00
2013-4-9,77.4,73.0,63.5,53.7,51.4,48.6,67,47,41,29.90,29.84,10,2,10,0.00
2013-4-10,83.1,67.6,48.9,55.9,51.9,44.6,86,63,33,29.84,29.69,11,3,15,0.00
2013-4-11,45.3,42.2,37.2,34.6,26.2,23.1,73,53,48,29.78,29.72,10,2,10,0.00
2013-4-12,51.3,44.3,35.1,25.7,22.6,17.5,67,43,35,30.04,29.84,12,3,13,0.00
2013-4-13,56.7,52.9,49.1,29.2,27.6,25.2,41,37,35,30.10,30.07,6,1,6,0.00
2013-4-14,79.7,71.1,62.6,49.7,42.2,35.6,61,37,21,29.78,29.60,14,4,14,0.00
2013-4-15,74.7,64.8,55.9,57.5,53.2,48.1,81,68,45,29.90,29.75,9,2,12,0.00
2013-4-16,55.9,48.2,46.9,49.7,44.6,43.6,89,87,79,30.13,29.90,9,2,10,0.00
2013-4-17,85.5,76.9,47.8,68.8,53.8,44.6,92,48,29,30.10,29.72,13,4,17,0.00
2013-4-18,64.8,48.5,39.4,62.1,40.7,24.0,91,75,53,29.87,29.63,13,2,15,0.00
2013-4-19,54.0,46.4,36.5,23.0,19.4,15.1,51,35,26,30.10,29.96,13,3,14,0.00
2013-4-20,61.2,54.2,34.9,26.7,23.6,19.8,59,31,26,30.28,30.10,8,1,8,0.00
2013-4-21,68.9,61.2,46.4,31.5,28.2,22.2,41,29,23,30.37,30.19,10,1,15,0.00
2013-4-22,74.3,68.0,49.1,35.8,31.6,26.6,42,26,21,30.25,29.98,12,2,12,0.00
2013-4-23,59.5,46.1,38.1,54.9,41.5,34.6,87,84,74,30.07,29.90,11,2,11,0.00
2013-4-24,54.7,45.8,36.7,34.9,25.0,19.0,88,47,27,30.28,30.04,13,2,13,0.00
2013-4-25,67.3,58.7,36.3,31.2,28.5,24.3,65,33,24,30.37,30.25,11,2,11,0.00
2013-4-26,55.0,50.2,47.5,47.2,42.2,28.0,83,75,36,30.40,30.22,8,0,9,0.00
2013-4-27,54.0,52.3,47.8,50.2,48.5,42.6,89,87,82,30.25,29.98,6,0,6,0.00
2013-4-28,61.5,53.7,49.1,52.2,47.6,43.2,91,81,52,30.01,29.93,9,0,9,0.00
2013-4-29,83.7,75.7,49.1,56.1,49.4,44.3,85,42,29,29.96,29.81,10,2,11,0.00
2013-4-30,86.5,79.1,63.5,48.2,40.7,35.9,44,26,19,29.98,29.87,13,2,14,0.00
2013-5-1,84.4,76.1,63.3,53.8,48.8,45.1,71,40,28,30.10,30.01,9,1,9,0.00
2013-5-2,68.5,53.3,40.6,54.4,41.6,35.7,83,66,42,30.19,30.13,12,3,14,0.00
2013-5-3,40.5,38.3,36.9,36.3,35.0,33.4,89,88,87,30.13,29.87,10,1,10,0.00
2013-5-4,50.9,44.0,36.1,42.9,33.3,27.4,90,68,47,30.01,29.87,8,1,8,0.00
2013-5-5,55.6,51.9,37.0,52.5,48.3,30.5,90,88,77,30.01,29.96,8,1,8,0.00
2013-5-6,70.3,64.0,57.2,56.5,45.3,39.5,79,52,35,30.01,29.96,11,2,13,0.00
2013-5-7,76.6,68.9,57.9,49.9,45.0,41.8,74,45,31,30.07,30.01,9,2,11,0.00
2013-5-8,79.0,67.4,56.8,53.0,48.4,41.0,79,54,27,30.07,30.01,10,1,10,0.00
2013-5-9,78.8,70.8,61.5,59.0,51.3,46.2,78,52,34,29.98,29.90,12,2,13,0.00
2013-5-10,70.0,62.7,55.8,58.6,49.8,46.0,77,64,46,30.04,29.93,10,2,10,0.00
2013-5-11,71.1,62.8,47.3,47.4,32.7,21.5,74,33,23,30.19,30.04,13,3,15,0.00
2013-5-12,64.0,56.2,42.6,28.7,24.9,21.7,56,31,24,30.28,30.16,10,2,11,0.00
2013-5-13,76.8,67.9,41.5,40.1,35.2,26.9,57,31,22,30.25,30.07,8,2,10,0.00
2013-5-14,91.9,81.2,67.5,44.4,41.0,36.4,43,26,18,29.96,29.93,10,2,12,0.00
2013-5-15,88.0,80.1,69.3,58.5,54.1,49.8,64,42,29,29.98,29.90,8,2,10,0.00
2013-5-16,76.3,68.8,61.2,60.0,50.3,44.3,69,53,42,29.98,29.93,9,2,9,0.00
2013-5-17,74.1,69.5,64.2,65.3,61.1,57.2,87,75,65,29.98,29.96,5,0,6,0.00
2013-5-18,82.9,76.5,63.7,73.2,61.4,56.4,89,61,41,30.01,29.90,8,2,8,0.00
2013-5-19,89.8,82.2,73.8,72.7,61.2,51.9,87,52,29,29.96,29.75,12,3,13,0.00
2013-5-20,75.7,73.6,67.5,66.8,64.3,61.6,82,73,64,29.90,29.75,10,2,10,0.00
2013-5-21,75.6,69.0,63.0,64.2,56.7,53.2,81,65,51,29.87,29.72,8,1,11,0.00
2013-5-22,73.9,67.6,55.8,56.2,48.4,44.9,79,51,39,29.96,29.78,10,1,10,0.00
2013-5-23,68.0,61.9,52.2,55.1,47.0,43.3,83,59,48,30.25,29.96,10,2,10,0.00
2013-5-24,72.7,62.6,49.6,49.0,33.9,29.4,75,37,23,30.40,30.25,10,2,10,0.00
2013-5-25,75.6,66.5,47.5,51.5,46.5,32.4,71,50,35,30.31,30.13,8,1,9,0.00
2013-5-26,86.0,78.5,67.8,59.1,56.2,51.6,66,47,31,30.16,30.04,10,2,10,0.00
2013-5-27,83.1,75.0,66.0,63.8,59.5,51.9,76,59,45,30.04,29.84,12,2,12,0.00
2013-5-28,83.1,75.2,69.4,62.5,59.2,57.2,68,58,43,29.93,29.87,11,2,11,0.00
2013-5-29,84.9,79.9,73.9,62.6,55.6,48.1,59,44,34,29.98,29.84,12,4,12,0.00
2013-5-30,83.1,76.1,67.3,65.0,61.1,56.9,80,61,44,29.93,29.84,13,3,15,0.00
2013-5-31,80.4,74.8,66.4,68.6,64.4,55.8,80,70,61,29.90,29.75,11,3,12,0.00
2013-6-1,77.9,69.3,61.7,68.8,58.8,50.5,91,71,46,29.96,29.81,10,1,13,0.00
2013-6-2,65.8,62.1,58.5,54.9,51.4,49.5,78,68,56,30.07,29.96,8,1,8,0.00
2013-6-3,74.3,67.0,57.0,54.0,46.8,42.2,77,50,33,30.10,29.98,8,1,8,0.00
2013-6-4,74.5,70.1,61.3,58.6,52.7,49.3,76,55,43,30.07,30.01,8,1,8,0.00
2013-6-5,77.0,70.1,60.6,64.1,57.6,50.2,82,66,46,30.04,29.90,8,1,8,0.00
2013-6-6,74.5,68.7,59.7,66.8,55.1,50.7,90,63,46,29.93,29.90,8,1,9,0.00
2013-6-7,75.4,68.2,57.4,54.6,45.8,41.4,74,46,32,29.98,29.93,10,2,10,0.00
2013-6-8,80.2,73.0,62.4,53.5,48.4,43.3,72,44,30,30.01,29.93,9,1,9,0.00
2013-6-9,74.7,66.7,61.5,65.1,58.1,51.0,86,74,56,29.98,29.84,9,1,14,0.00
2013-6-10,82.2,73.8,59.4,59.5,56.1,52.3,86,56,37,29.96,29.87,9,2,11,0.00
2013-6-11,92.3,82.5,62.8,70.2,65.9,58.3,91,59,34,29.98,29.93,8,1,8,0.00
2013-6-12,92.8,87.3,74.8,66.2,63.0,59.1,72,45,38,29.96,29.84,13,3,13,0.00
2013-6-13,81.1,74.5,64.4,60.2,57.2,54.1,82,56,42,30.04,30.01,8,2,9,0.00
2013-6-14,85.1,77.7,65.1,70.6,57.1,49.4,86,52,30,30.10,30.01,7,1,8,0.00
2013-6-15,76.5,72.8,66.7,65.4,62.9,56.3,80,72,53,30.07,30.01,8,1,8,0.00
2013-6-16,85.8,77.3,69.4,74.3,68.6,63.0,88,75,54,30.04,29.96,6,0,8,0.00
2013-6-17,81.3,73.8,64.8,73.6,66.4,59.7,89,78,68,30.01,29.93,11,1,11,0.00
2013-6-18,86.2,76.3,64.4,71.1,61.0,55.0,88,61,39,30.04,29.98,7,1,8,0.00
2013-6-19,86.7,78.2,67.8,71.8,59.2,51.5,89,55,31,30.10,30.04,8,1,8,0.00
2013-6-20,89.1,81.6,70.2,66.2,61.0,58.3,78,51,38,30.16,30.07,8,1,8,0.00
2013-6-21,90.1,85.2,76.5,69.1,66.6,63.7,71,54,44,30.16,30.07,10,2,10,0.00
2013-6-22,90.3,79.1,69.8,73.1,64.3,55.1,77,62,41,30.13,30.04,9,2,9,0.00
2013-6-23,89.4,79.4,68.2,68.7,63.5,57.5,78,60,42,30.10,29.98,8,2,11,0.00
2013-6-24,91.2,83.5,68.0,67.7,63.0,60.2,80,52,38,30.10,29.98,8,1,9,0.00
2013-6-25,89.8,83.8,75.0,73.8,67.9,63.5,71,59,43,29.98,29.87,8,1,8,0.00
2013-6-26,93.9,87.3,76.6,70.0,67.3,63.6,75,53,38,29.90,29.81,8,2,10,0.00
2013-6-27,92.5,84.6,74.3,69.4,63.2,55.0,81,51,29,29.98,29.87,8,2,8,0.00
2013-6-28,88.3,80.2,67.6,60.4,52.1,46.3,60,39,26,29.90,29.81,12,2,12,0.00
2013-6-29,82.6,73.7,64.4,59.8,52.8,45.5,84,51,30,29.81,29.75,14,3,14,0.00
2013-6-30,77.4,69.3,63.5,64.3,56.2,48.6,87,64,39,29.98,29.90,12,2,12,0.00
2013-7-1,70.9,68.9,66.9,56.1,54.9,54.1,65,61,56,30.04,30.01,8,2,8,0.00
2013-7-2,73.4,66.5,58.1,53.5,49.1,44.6,84,55,39,30.10,30.07,10,2,11,0.00
2013-7-3,82.2,73.8,57.0,57.8,51.3,46.3,86,49,30,30.13,30.04,8,1,8,0.00
2013-7-4,79.3,71.3,62.8,63.7,58.2,51.5,79,65,38,30.13,30.10,4,0,5,0.00
2013-7-5,87.1,77.0,64.8,67.9,52.9,48.8,71,46,28,30.10,30.01,8,1,12,0.00
2013-7-6,88.7,75.7,63.1,66.6,57.0,49.7,84,55,29,30.10,30.01,8,1,10,0.00
2013-7-7,91.8,83.3,66.2,67.9,59.6,53.6,79,47,28,30.10,30.04,8,1,10,0.00
2013-7-8,93.2,86.3,72.3,66.8,62.3,57.1,71,46,32,30.16,30.07,8,1,8,0.00
2013-7-9,95.0,86.6,76.1,68.7,64.9,59.6,76,51,33,30.07,29.98,6,0,6,0.00
2013-7-10,88.9,80.6,71.4,77.2,69.9,65.3,89,71,48,30.07,29.96,6,1,7,0.00
2013-7-11,82.6,76.5,62.6,70.0,56.5,49.8,84,52,34,30.10,30.04,9,2,10,0.00
2013-7-12,81.3,74.4,61.3,67.0,52.0,47.2,86,48,31,30.16,30.07,9,2,10,0.00
2013-7-13,82.8,76.5,61.9,58.7,51.7,47.2,74,44,32,30.13,30.04,9,2,10,0.00
2013-7-14,77.9,72.2,64.0,67.4,66.0,53.1,83,81,64,30.16,30.07,11,2,11,0.00
2013-7-15,75.6,23.5,0.0,69.0,21.2,0.0,82,25,74,30.25,30.16,8,2,10,0.00
2013-7-16,0.0,0.0,0.0,0.0,0.0,0.0,0,0,100,30.34,30.28,10,2,10,0.00
2013-7-17,73.9,9.5,0.0,65.5,8.5,0.0,75,10,75,30.37,30.25,8,1,8,0.00
2013-7-18,0.0,0.0,0.0,0.0,0.0,0.0,0,0,100,30.28,30.07,8,1,8,0.00
2013-7-19,0.0,0.0,0.0,0.0,0.0,0.0,0,0,100,30.07,29.96,10,1,10,0.00
2013-7-20,0.0,0.0,0.0,0.0,0.0,0.0,0,0,100,30.01,29.90,13,1,15,0.00
2013-7-21,0.0,0.0,0.0,0.0,0.0,0.0,0,0,100,30.01,29.90,6,0,6,0.00
2013-7-22,0.0,0.0,0.0,0.0,0.0,0.0,0,0,100,29.93,29.84,8,1,8,0.00
2013-7-23,71.6,66.2,0.0,64.9,60.8,0.0,83,77,68,29.96,29.84,8,2,8,0.00
2013-7-24,77.2,24.5,0.0,52.1,18.0,0.0,69,20,37,30.07,30.01,8,2,9,0.00
2013-7-25,80.8,41.8,0.0,56.6,30.4,0.0,72,31,32,30.16,30.10,8,1,8,0.00
2013-7-26,65.8,0.8,0.0,56.6,0.7,0.0,72,1,72,30.10,30.01,4,0,6,0.00
2013-7-27,63.1,15.6,0.0,51.1,13.2,0.0,75,19,64,30.07,29.98,9,2,10,0.00
2013-7-28,76.5,62.2,0.0,51.0,41.7,0.0,44,35,37,30.10,30.04,8,1,8,0.00
2013-7-29,74.3,4.7,0.0,58.1,3.9,0.0,83,5,44,30.19,30.10,8,1,9,0.00
2013-7-30,0.0,0.0,0.0,0.0,0.0,0.0,0,0,100,30.10,30.01,6,0,6,0.00
2013-7-31,0.0,0.0,0.0,0.0,0.0,0.0,0,0,100,30.10,28.94,8,2,9,0.00
2013-8-1,0.0,0.0,0.0,0.0,0.0,0.0,0,0,100,30.13,30.04,6,1,8,0.00
2013-8-2,0.0,0.0,0.0,0.0,0.0,0.0,0,0,100,30.04,29.95,7,1,8,0.00
2013-8-3,0.0,0.0,0.0,0.0,0.0,0.0,0,0,100,30.13,29.98,8,2,8,0.00
2013-8-4,0.0,0.0,0.0,0.0,0.0,0.0,0,0,100,30.22,30.10,6,1,6,0.00
2013-8-5,0.0,0.0,0.0,0.0,0.0,0.0,0,0,100,30.04,29.92,5,0,6,0.00
2013-8-6,0.0,0.0,0.0,0.0,0.0,0.0,0,0,100,29.98,29.89,6,0,6,0.00
2013-8-7,0.0,0.0,0.0,0.0,0.0,0.0,0,0,100,29.98,29.92,6,0,6,0.00
2013-8-8,0.0,0.0,0.0,0.0,0.0,0.0,0,0,100,30.01,29.92,4,0,4,0.00
2013-8-9,0.0,0.0,0.0,0.0,0.0,0.0,0,0,100,30.10,30.01,8,0,8,0.00
2013-8-10,0.0,0.0,0.0,0.0,0.0,0.0,0,0,100,30.16,30.10,6,0,6,0.00
2013-8-11,0.0,0.0,0.0,0.0,0.0,0.0,0,0,100,30.19,30.07,6,1,6,0.00
2013-8-12,0.0,0.0,0.0,0.0,0.0,0.0,0,0,100,30.10,30.04,5,1,6,0.00
2013-8-13,0.0,0.0,0.0,0.0,0.0,0.0,0,0,100,30.10,30.04,8,2,8,0.00
2013-8-14,0.0,0.0,0.0,0.0,0.0,0.0,0,0,100,30.24,30.16,10,3,10,0.00
2013-8-15,0.0,0.0,0.0,0.0,0.0,0.0,0,0,100,30.19,30.10,8,2,8,0.00
2013-8-16,0.0,0.0,0.0,0.0,0.0,0.0,0,0,100,30.19,30.16,8,2,8,0.00
2013-8-17,0.0,0.0,0.0,0.0,0.0,0.0,0,0,100,30.22,30.13,8,2,8,0.00
2013-8-18,0.0,0.0,0.0,0.0,0.0,0.0,0,0,100,30.19,30.10,6,0,8,0.00
2013-8-20,0.0,0.0,0.0,0.0,0.0,0.0,0,0,100,30.16,30.07,8,0,8,0.00
2013-8-21,0.0,0.0,0.0,0.0,0.0,0.0,0,0,100,30.19,30.10,6,0,6,0.00
2013-8-22,0.0,0.0,0.0,0.0,0.0,0.0,0,0,100,30.16,30.07,6,0,6,0.00
2013-8-23,0.0,0.0,0.0,0.0,0.0,0.0,0,0,100,30.16,30.07,8,0,8,0.00
2013-8-24,0.0,0.0,0.0,0.0,0.0,0.0,0,0,100,30.22,30.19,6,1,8,0.00
2013-8-25,0.0,0.0,0.0,0.0,0.0,0.0,0,0,100,30.27,30.27,5,0,5,0.00
2013-8-26,0.0,0.0,0.0,0.0,0.0,0.0,0,0,100,30.24,30.24,6,2,6,0.00
2013-8-27,0.0,0.0,0.0,0.0,0.0,0.0,0,0,100,30.07,30.07,6,1,6,0.00
2013-8-28,0.0,0.0,0.0,0.0,0.0,0.0,0,0,100,30.10,30.07,6,1,8,0.00
2013-8-29,0.0,0.0,0.0,0.0,0.0,0.0,0,0,100,30.04,30.01,0,0,0,0.00
2013-8-30,0.0,0.0,0.0,0.0,0.0,0.0,0,0,100,30.04,29.92,6,0,6,0.00
2013-8-31,0.0,0.0,0.0,0.0,0.0,0.0,0,0,100,29.92,29.83,8,1,8,0.00
2013-9-1,0.0,0.0,0.0,0.0,0.0,0.0,0,0,100,29.89,29.86,5,0,7,0.00
2013-9-2,0.0,0.0,0.0,0.0,0.0,0.0,0,0,100,30.01,29.95,8,2,8,0.00
2013-9-3,0.0,0.0,0.0,0.0,0.0,0.0,0,0,100,30.13,30.04,6,1,6,0.00
2013-9-4,0.0,0.0,0.0,0.0,0.0,0.0,0,0,100,30.22,30.13,6,1,8,0.00
2013-9-5,0.0,0.0,0.0,0.0,0.0,0.0,0,0,100,30.24,30.16,6,0,8,0.00
2013-9-6,0.0,0.0,0.0,0.0,0.0,0.0,0,0,100,30.22,30.07,6,1,6,0.00
2013-9-7,0.0,0.0,0.0,0.0,0.0,0.0,0,0,100,30.10,30.10,5,0,6,0.00
2013-9-8,0.0,0.0,0.0,0.0,0.0,0.0,0,0,100,30.10,29.95,6,0,7,0.00
2013-9-9,0.0,0.0,0.0,0.0,0.0,0.0,0,0,100,30.04,29.98,6,1,9,0.00
2013-9-10,0.0,0.0,0.0,0.0,0.0,0.0,0,0,100,30.10,30.07,5,1,8,0.00
2013-9-11,0.0,0.0,0.0,0.0,0.0,0.0,0,0,100,30.19,30.10,6,0,6,0.00
2013-9-12,0.0,0.0,0.0,0.0,0.0,0.0,0,0,100,30.16,30.04,9,1,9,0.00
2013-9-13,0.0,0.0,0.0,0.0,0.0,0.0,0,0,100,30.16,30.07,8,1,10,0.00
2013-9-15,0.0,0.0,0.0,0.0,0.0,0.0,0,0,100,30.10,30.04,8,1,8,0.00
2013-9-16,0.0,0.0,0.0,0.0,0.0,0.0,0,0,100,30.27,30.22,6,0,6,0.00
2013-9-17,0.0,0.0,0.0,0.0,0.0,0.0,0,0,100,30.22,30.10,5,0,6,0.00
2013-9-18,0.0,0.0,0.0,0.0,0.0,0.0,0,0,100,30.10,29.98,0,0,0,0.00
2013-9-20,0.0,0.0,0.0,0.0,0.0,0.0,0,0,100,29.98,29.95,0,0,0,0.00
2013-9-21,0.0,0.0,0.0,0.0,0.0,0.0,0,0,100,30.04,29.95,0,0,0,0.00
2013-9-22,0.0,0.0,0.0,0.0,0.0,0.0,0,0,100,30.04,29.95,0,0,0,0.00
2013-9-23,0.0,0.0,0.0,0.0,0.0,0.0,0,0,100,30.04,29.92,0,0,0,0.00
2013-9-24,0.0,0.0,0.0,0.0,0.0,0.0,0,0,100,29.86,29.80,0,0,0,0.00
2013-9-25,0.0,0.0,0.0,0.0,0.0,0.0,0,0,100,29.92,29.86,0,0,0,0.00
2013-9-26,0.0,0.0,0.0,0.0,0.0,0.0,0,0,100,30.04,29.98,0,0,0,0.00
2013-9-27,0.0,0.0,0.0,0.0,0.0,0.0,0,0,100,30.13,30.01,0,0,0,0.00
2013-9-28,0.0,0.0,0.0,0.0,0.0,0.0,0,0,100,30.04,29.98,0,0,0,0.00
2013-9-29,0.0,0.0,0.0,0.0,0.0,0.0,0,0,100,30.10,30.01,0,0,0,0.00
2013-9-30,0.0,0.0,0.0,0.0,0.0,0.0,0,0,100,30.01,29.92,0,0,0,0.00
2013-10-1,0.0,0.0,0.0,0.0,0.0,0.0,0,0,100,30.07,29.98,0,0,0,0.00
2013-10-2,0.0,0.0,0.0,0.0,0.0,0.0,0,0,100,30.07,30.01,0,0,0,0.00
2013-10-3,0.0,0.0,0.0,0.0,0.0,0.0,0,0,100,30.01,29.92,0,0,0,0.00
2013-10-4,0.0,0.0,0.0,0.0,0.0,0.0,0,0,100,30.01,29.95,0,0,0,0.00
2013-10-5,0.0,0.0,0.0,0.0,0.0,0.0,0,0,100,30.01,30.01,0,0,0,0.00
2013-10-6,0.0,0.0,0.0,0.0,0.0,0.0,0,0,100,29.92,29.92,0,0,0,0.00
2013-10-7,0.0,0.0,0.0,0.0,0.0,0.0,0,0,100,30.16,30.13,6,2,6,0.00
2013-10-8,0.0,0.0,0.0,0.0,0.0,0.0,0,0,100,30.19,30.19,3,2,3,0.00
2013-10-9,0.0,0.0,0.0,0.0,0.0,0.0,0,0,100,30.19,30.16,6,0,6,0.00
2013-11-2,50.5,40.8,34.7,35.8,33.7,31.2,97,78,49,30.15,29.03,4,1,5,0.00
2013-11-3,66.0,55.3,46.2,44.8,35.7,30.9,79,49,34,30.24,30.06,13,2,13,0.00
2013-11-4,59.5,56.2,53.8,45.3,43.0,40.2,70,61,55,30.15,30.06,11,3,12,0.00
2013-11-5,61.7,57.3,54.7,56.1,54.3,51.7,98,90,75,30.18,29.94,11,3,14,0.00
2013-11-6,43.2,39.8,34.2,42.5,36.9,33.2,98,89,77,30.27,30.06,12,3,14,0.00
2013-11-7,61.5,48.0,34.0,38.0,32.6,28.3,98,58,36,30.36,30.24,14,2,14,0.00
2013-11-8,66.4,55.3,32.7,35.9,32.6,29.3,89,44,29,30.30,30.06,10,3,13,0.00
2013-11-9,70.5,56.8,44.8,42.5,38.7,34.3,79,54,35,30.24,30.06,11,2,13,0.00
2013-11-10,67.5,52.2,41.4,35.5,24.4,-9.7,52,36,8,30.41,30.24,8,2,8,0.00
2013-11-11,69.1,53.8,34.0,48.8,40.9,26.1,98,65,41,30.41,30.09,18,4,18,0.00
2013-11-12,37.4,24.7,18.3,16.2,9.4,6.3,67,53,33,30.65,30.59,15,1,15,0.00
2013-11-13,54.3,40.7,18.3,23.3,7.0,-11.9,68,30,7,30.62,30.24,9,2,9,0.00
2013-11-14,63.1,51.2,32.7,23.1,8.4,-10.8,43,23,5,30.27,30.00,10,3,11,0.00
2013-11-15,57.9,50.4,45.9,46.7,39.9,22.9,89,69,40,30.03,29.88,9,3,10,0.00
2013-11-16,65.8,61.5,50.2,63.5,57.6,46.5,96,87,80,29.88,29.59,16,4,20,0.00
2013-11-17,80.6,64.4,47.8,64.3,20.8,-14.5,92,26,3,29.97,29.47,23,4,24,0.00
2013-11-18,61.0,47.4,32.0,35.9,25.5,0.0,73,44,26,30.27,30.18,13,3,18,0.00
2013-11-19,61.5,45.7,30.6,32.8,19.2,-10.8,77,39,6,30.30,30.12,10,2,12,0.00
2013-11-20,50.2,44.5,38.3,39.2,35.4,21.9,87,71,51,30.15,29.94,8,2,8,0.00
2013-11-21,53.4,50.4,47.3,52.2,48.7,35.7,98,95,56,30.15,30.00,6,1,6,0.00
2013-11-22,126.3,35.8,32.5,99.9,33.9,30.2,100,93,90,30.47,30.15,13,4,13,0.00
2013-11-23,38.7,27.9,15.6,30.6,11.6,4.0,93,51,39,30.65,30.44,15,5,17,0.00
2013-11-24,35.1,27.1,15.1,13.0,8.6,4.6,66,46,35,30.65,30.36,8,2,9,0.00
2013-11-25,38.3,33.6,27.7,22.8,18.2,8.1,66,53,43,30.36,30.06,8,1,8,0.00
2013-11-26,47.3,33.4,21.9,28.5,17.2,6.1,65,51,48,30.21,30.00,20,6,22,0.00
2013-11-27,35.1,24.7,17.6,12.2,6.0,2.6,57,45,33,30.30,30.18,13,2,17,0.00
2013-11-28,54.5,39.4,18.0,27.4,20.1,5.3,71,47,35,30.41,30.18,11,2,11,0.00
2013-11-29,58.8,41.6,23.0,31.2,25.1,15.5,77,54,35,30.47,30.30,5,1,6,0.00
2013-11-30,65.7,49.0,32.4,40.5,35.1,26.4,88,62,38,30.33,30.06,8,2,10,0.00
2013-12-1,67.3,50.6,38.1,44.6,39.2,35.5,94,68,42,30.12,29.82,8,1,8,0.00
2013-12-2,65.8,50.6,37.2,50.1,42.5,35.7,97,76,47,29.82,29.62,8,1,8,0.00
2013-12-3,63.0,55.9,51.6,53.1,50.3,44.9,97,82,61,29.68,29.56,7,2,9,0.00
2013-12-4,70.0,56.6,41.2,54.6,46.1,34.8,98,69,51,29.82,29.50,13,3,14,0.00
2013-12-5,26.1,22.1,19.4,18.4,16.8,13.1,92,81,59,30.24,30.06,7,3,11,0.00
2013-12-6,21.2,17.4,9.5,16.4,7.9,-3.4,87,66,55,30.53,30.18,11,3,11,0.00
2013-12-7,30.9,20.3,8.1,10.1,3.6,-4.8,77,49,34,30.62,30.39,8,2,8,0.00
2013-12-8,30.9,26.8,25.0,24.6,21.9,15.8,95,82,62,30.09,29.94,4,4,4,0.00
2013-12-9,31.3,23.8,18.7,25.2,13.3,8.2,95,65,44,30.27,30.03,57,2,57,0.00
2013-12-10,45.3,27.7,16.7,17.6,11.0,6.6,83,52,30,30.30,30.18,10,2,11,0.00
2013-12-11,42.4,25.7,7.9,21.3,8.4,-5.7,74,48,40,30.56,30.24,12,2,13,0.00
2013-12-12,40.6,32.9,25.3,17.4,13.6,8.9,50,45,40,30.50,30.50,6,3,8,0.00
2013-12-13,34.9,33.2,32.5,32.8,31.1,23.0,98,92,62,30.09,29.85,6,1,57,0.00
2013-12-14,35.1,28.8,25.2,32.8,27.5,23.2,98,95,85,30.12,29.85,15,4,57,0.00
2013-12-15,51.3,39.1,24.6,31.9,29.9,22.4,93,71,47,30.15,29.94,12,3,12,0.00
2013-12-16,61.7,48.2,32.5,35.2,30.7,26.5,79,53,36,30.12,29.94,115,3,115,0.00
2013-12-17,53.4,38.7,26.8,29.1,24.4,0.0,83,58,38,30.27,30.09,14,3,18,0.00
2013-12-18,57.4,47.5,26.4,38.6,30.2,22.0,84,52,37,30.24,29.88,15,4,17,0.00
2013-12-19,51.1,47.9,46.2,43.6,40.6,37.9,80,76,73,29.94,29.85,7,3,9,0.00
2013-12-20,70.9,46.0,34.0,59.3,41.1,33.5,98,84,64,29.82,29.71,12,3,13,0.00
2013-12-21,35.1,32.9,31.5,34.4,32.4,31.0,98,98,98,29.79,29.50,11,3,12,0.00
2013-12-22,34.2,27.9,24.6,31.3,24.3,20.0,93,86,79,30.24,29.85,12,4,12,0.00
2013-12-23,28.9,20.8,10.6,20.2,11.2,3.9,83,66,53,30.53,30.24,11,3,13,0.00
2013-12-24,33.8,24.3,7.7,10.5,6.3,1.2,74,47,31,30.53,30.24,11,3,11,0.00
2013-12-25,43.7,33.2,26.2,30.1,27.0,10.1,98,79,54,30.30,30.18,8,2,10,0.00
2013-12-26,56.7,41.1,25.9,32.2,22.1,16.2,98,49,32,30.30,30.18,12,2,12,0.00
2013-12-27,63.7,48.4,33.4,35.0,28.0,22.9,69,47,29,30.33,30.21,6,2,7,0.00
2013-12-28,63.7,48.6,32.9,34.7,27.6,23.3,71,46,26,30.24,29.88,11,2,11,0.00
2013-12-29,40.3,22.8,16.2,28.7,13.4,4.7,81,67,60,30.21,29.88,15,4,15,0.00
2013-12-30,34.9,27.5,13.6,12.5,7.7,2.9,63,43,34,30.24,30.12,6,2,6,0.00
2013-12-31,57.7,46.0,35.1,27.8,20.2,15.7,56,37,20,30.27,30.12,13,3,13,0.00
2014-1-1,50.4,38.6,23.9,28.6,24.8,20.4,91,59,41,30.15,29.88,10,3,12,0.00
2014-1-2,28.4,16.1,2.3,20.8,1.5,-11.3,89,52,45,30.41,30.03,13,3,15,0.00